N4RCT Weather Reports


Display with metric or nautical units.
time (UTC)temp
F
wind
direction
speed
MPH
gust
MPH
rain 1hr
in
rain 24hr
in
rain mn
in
humidity
%
barometer
mb
20260504081628 41 121 0.0 0.0 0.00 0.00 0.00 97 1016.5
20260504081124 41 119 0.0 0.0 0.00 0.00 0.00 97 1016.5
20260504080621 41 109 0.0 0.0 0.00 0.00 0.00 97 1016.6
20260504080117 41 117 0.0 0.0 0.00 0.00 0.00 97 1016.6
20260504050433 45 109 0.0 0.0 0.00 0.00 0.00 94 1017.2
20260504045931 45 109 0.0 0.0 0.00 0.00 0.00 94 1017.1
20260504045426 45 109 0.0 0.0 0.00 0.00 0.00 94 1017.2
20260504044922 45 109 0.0 0.0 0.00 0.00 0.00 94 1017.0
20260504044420 45 109 0.0 0.0 0.00 0.00 0.00 93 1017.3
20260504043918 45 102 0.0 0.0 0.00 0.00 0.00 93 1017.3
20260504043414 45 119 0.0 0.0 0.00 0.00 0.00 93 1017.1
20260504042912 45 119 0.0 0.0 0.00 0.00 0.00 92 1017.6
20260504042408 46 120 0.0 0.0 0.00 0.00 0.00 92 1017.8
20260504041904 46 120 0.0 0.0 0.00 0.00 0.00 91 1017.4
20260504041401 46 119 0.0 0.0 0.00 0.00 0.00 91 1017.3
20260504040856 46 109 0.0 0.0 0.00 0.00 0.00 90 1017.6
20260504040354 46 109 0.0 0.0 0.00 0.00 0.00 91 1017.5
20260504035850 46 102 0.0 0.0 0.00 0.00 0.00 91 1017.8
20260504035348 47 109 0.0 0.0 0.00 0.00 0.00 91 1017.3
20260504034844 47 109 0.0 0.0 0.00 0.00 0.00 91 1017.5
20260504034342 47 109 0.0 0.0 0.00 0.00 0.00 91 1017.6
20260504033839 47 108 0.0 0.0 0.00 0.00 0.00 91 1017.8
20260504033337 47 119 0.0 0.0 0.00 0.00 0.00 90 1017.5
20260504032833 48 109 0.0 0.0 0.00 0.00 0.00 90 1017.5
20260504032331 48 109 0.0 0.0 0.00 0.00 0.00 90 1017.6
20260504031827 48 119 0.0 0.0 0.00 0.00 0.00 89 1017.8
20260504031325 48 119 0.0 0.0 0.00 0.00 0.00 88 1017.5
20260504030821 48 109 0.0 0.0 0.00 0.00 0.00 88 1017.3
20260504030318 49 120 0.0 0.0 0.00 0.00 0.00 88 1017.2
20260504025814 49 119 0.0 0.0 0.00 0.00 0.00 89 1017.5
20260504025312 49 120 0.0 0.0 0.00 0.00 0.00 88 1017.2
20260504024808 50 121 0.0 0.0 0.00 0.00 0.00 87 1017.1
20260504024304 50 120 0.0 0.0 0.00 0.00 0.00 87 1017.4
20260504023801 50 120 0.0 0.0 0.00 0.00 0.00 87 1017.4
20260504023258 50 119 0.0 0.0 0.00 0.00 0.00 87 1017.3
20260504022754 50 109 0.0 0.0 0.00 0.00 0.00 86 1017.1
20260504022250 50 103 0.0 0.0 0.00 0.00 0.00 86 1017.1
20260504021747 51 90 0.0 0.0 0.00 0.00 0.00 86 1017.0
20260504021245 51 120 0.0 0.0 0.00 0.00 0.00 85 1017.2
20260504020741 51 121 0.0 0.0 0.00 0.00 0.00 85 1017.2
20260504020238 51 119 0.0 0.0 0.00 0.00 0.00 84 1017.2
20260504015734 52 119 0.0 0.0 0.00 0.00 0.00 84 1016.9
20260504015231 52 119 0.0 0.0 0.00 0.00 0.00 84 1016.8
20260504014726 52 122 0.0 0.0 0.00 0.00 0.00 85 1016.9
20260504014223 52 109 0.0 0.0 0.00 0.00 0.00 84 1016.7
20260504013721 53 108 0.0 0.0 0.00 0.00 0.00 83 1016.7
20260504013218 53 110 0.0 0.0 0.00 0.00 0.00 82 1016.8
20260504012715 53 109 0.0 0.0 0.00 0.00 0.00 81 1016.8
20260504012213 53 109 0.0 0.0 0.00 0.00 0.00 82 1016.6
20260504011709 54 109 0.0 0.0 0.00 0.00 0.00 82 1016.6
20260504011206 54 109 0.0 0.0 0.00 0.00 0.00 79 1016.5
20260504010702 55 109 0.0 0.0 0.00 0.00 0.00 77 1016.5
20260504010158 55 119 0.0 0.0 0.00 0.00 0.00 77 1016.4
20260504005655 55 121 0.0 0.0 0.00 0.00 0.00 76 1016.6
20260504005151 56 120 0.0 0.0 0.00 0.00 0.00 76 1016.6
20260504004649 56 121 0.0 0.0 0.00 0.00 0.00 75 1016.3
20260504004146 57 121 0.0 0.0 0.00 0.00 0.00 75 1016.5
20260504003643 57 134 0.0 0.0 0.00 0.00 0.00 73 1016.3
20260504003139 58 135 0.0 0.0 0.00 0.00 0.00 70 1016.4
20260504002636 58 120 0.0 0.0 0.00 0.00 0.00 70 1016.4
20260504002134 59 122 0.0 0.0 0.00 0.00 0.00 69 1016.4
20260504001632 60 109 0.0 0.0 0.00 0.00 0.00 68 1016.3
20260504001127 60 138 0.0 0.0 0.00 0.00 0.00 71 1016.1
20260504000625 60 146 0.0 0.0 0.00 0.00 0.00 70 1016.3
20260504000122 61 130 0.0 0.0 0.00 0.00 0.00 67 1016.3
20260503235620 62 141 0.0 0.0 0.00 0.00 0.00 62 1016.2
20260503235116 62 122 0.0 0.0 0.00 0.00 0.00 61 1016.1
20260503234615 63 133 0.0 0.0 0.00 0.00 0.00 56 1016.1
20260503234112 63 133 0.0 0.0 0.00 0.00 0.00 56 1016.2
20260503233609 64 133 0.0 0.0 0.00 0.00 0.00 56 1016.1
20260503233104 64 119 0.0 0.0 0.00 0.00 0.00 53 1016.0
20260503232602 64 135 0.0 0.0 0.00 0.00 0.00 53 1016.1
20260503232059 65 103 0.0 0.0 0.00 0.00 0.00 50 1016.0
20260503231557 65 116 0.0 0.0 0.00 0.00 0.00 54 1016.3
20260503231053 65 128 0.0 0.0 0.00 0.00 0.00 52 1016.2
20260503230550 65 126 0.0 0.0 0.00 0.00 0.00 50 1016.3
20260503230047 66 115 0.0 0.0 0.00 0.00 0.00 50 1016.3
20260503225544 66 120 0.0 0.0 0.00 0.00 0.00 51 1016.3
20260503225039 66 78 0.0 1.0 0.00 0.00 0.00 52 1016.4
20260503224537 66 80 0.0 1.0 0.00 0.00 0.00 56 1016.2
20260503224035 67 121 0.0 0.0 0.00 0.00 0.00 48 1016.4
20260503223533 67 129 0.0 0.0 0.00 0.00 0.00 46 1016.3
20260503223028 67 81 0.0 0.0 0.00 0.00 0.00 45 1016.3
20260503222526 67 125 0.0 0.0 0.00 0.00 0.00 45 1016.5
20260503222024 67 126 0.0 0.0 0.00 0.00 0.00 45 1016.2
20260503221522 67 182 1.0 1.0 0.00 0.00 0.00 48 1016.4
20260503221019 67 120 0.0 0.0 0.00 0.00 0.00 47 1016.3
20260503220515 67 129 0.0 0.0 0.00 0.00 0.00 48 1016.6
20260503220012 67 177 1.0 1.0 0.00 0.00 0.00 48 1016.4
20260503215509 67 110 0.0 0.0 0.00 0.00 0.00 48 1016.5
20260503215006 68 42 1.0 2.0 0.00 0.00 0.00 46 1016.5
20260503214505 68 153 0.0 0.0 0.00 0.00 0.00 48 1016.5
20260503214001 68 108 0.0 0.0 0.00 0.00 0.00 48 1016.4
20260503213459 68 104 0.0 0.0 0.00 0.00 0.00 48 1016.5
20260503212955 68 189 2.0 2.0 0.00 0.00 0.00 47 1016.6
20260503212453 68 195 0.0 0.0 0.00 0.00 0.00 47 1016.5
20260503211950 68 215 1.0 2.0 0.00 0.00 0.00 47 1016.6
20260503211447 68 155 0.0 1.0 0.00 0.00 0.00 47 1016.7
20260503210943 68 123 0.0 0.0 0.00 0.00 0.00 44 1016.8
20260503210440 68 165 0.0 0.0 0.00 0.00 0.00 44 1016.8
20260503205934 69 195 1.0 1.0 0.00 0.00 0.00 44 1017.0
20260503205432 69 118 0.0 0.0 0.00 0.00 0.00 45 1017.0
20260503204927 68 218 2.0 5.0 0.00 0.00 0.00 44 1017.1
20260503204425 69 208 1.0 1.0 0.00 0.00 0.00 42 1017.2
20260503203922 68 74 0.0 0.0 0.00 0.00 0.00 44 1017.1
20260503203419 68 211 3.0 5.0 0.00 0.00 0.00 41 1017.2
20260503202916 69 181 2.0 3.0 0.00 0.00 0.00 46 1017.3
20260503202415 69 215 1.0 2.0 0.00 0.00 0.00 42 1017.3
20260503201913 69 136 0.0 1.0 0.00 0.00 0.00 42 1017.5
20260503201409 69 93 0.0 0.0 0.00 0.00 0.00 43 1017.6
20260503200907 69 127 0.0 1.0 0.00 0.00 0.00 42 1017.5
20260503200403 69 156 0.0 1.0 0.00 0.00 0.00 40 1017.6
20260503195900 69 157 0.0 1.0 0.00 0.00 0.00 41 1018.0
20260503195356 68 118 2.0 3.0 0.00 0.00 0.00 41 1018.0
20260503194854 69 205 2.0 2.0 0.00 0.00 0.00 40 1018.0
20260503194350 68 76 0.0 0.0 0.00 0.00 0.00 40 1018.0
20260503193846 68 131 0.0 0.0 0.00 0.00 0.00 39 1018.2
20260503193342 69 221 3.0 3.0 0.00 0.00 0.00 40 1018.4
20260503192838 69 229 1.0 3.0 0.00 0.00 0.00 42 1018.5
20260503192333 70 258 1.0 2.0 0.00 0.00 0.00 42 1018.5
20260503191830 70 164 0.0 1.0 0.00 0.00 0.00 44 1018.7
20260503191327 69 162 0.0 0.0 0.00 0.00 0.00 44 1018.5
20260503190824 69 94 0.0 0.0 0.00 0.00 0.00 45 1018.7
20260503190321 68 116 0.0 1.0 0.00 0.00 0.00 45 1018.8
20260503185818 68 64 0.0 0.0 0.00 0.00 0.00 45 1018.9
20260503185313 67 64 3.0 3.0 0.00 0.00 0.00 45 1018.7
20260503184808 67 71 0.0 1.0 0.00 0.00 0.00 47 1018.9
20260503184305 68 70 1.0 2.0 0.00 0.00 0.00 45 1019.2
20260503183800 67 223 2.0 2.0 0.00 0.00 0.00 47 1019.1
20260503183258 68 66 0.0 1.0 0.00 0.00 0.00 45 1019.1
20260503182755 67 210 2.0 2.0 0.00 0.00 0.00 45 1019.1
20260503182254 67 107 0.0 1.0 0.00 0.00 0.00 44 1019.2
20260503181750 67 26 3.0 3.0 0.00 0.00 0.00 46 1019.4
20260503181248 67 128 1.0 1.0 0.00 0.00 0.00 45 1019.5
20260503180744 67 189 2.0 3.0 0.00 0.00 0.00 47 1019.3
20260503180242 66 91 0.0 0.0 0.00 0.00 0.00 47 1019.4
20260503175738 67 125 1.0 1.0 0.00 0.00 0.00 46 1019.5
20260503175237 65 43 0.0 1.0 0.00 0.00 0.00 45 1019.5
20260503174732 66 178 0.0 1.0 0.00 0.00 0.00 44 1019.5
20260503174230 66 163 0.0 1.0 0.00 0.00 0.00 46 1019.4
20260503173725 66 82 0.0 0.0 0.00 0.00 0.00 47 1019.6
20260503173221 65 185 2.0 2.0 0.00 0.00 0.00 53 1019.6
20260503172718 64 200 3.0 3.0 0.00 0.00 0.00 51 1019.8
20260503172215 65 236 2.0 2.0 0.00 0.00 0.00 50 1019.8
20260503171712 65 127 2.0 3.0 0.00 0.00 0.00 49 1019.8
20260503171209 65 167 0.0 0.0 0.00 0.00 0.00 49 1019.8
20260503170706 65 210 3.0 3.0 0.00 0.00 0.00 52 1019.9
20260503170203 65 77 0.0 0.0 0.00 0.00 0.00 49 1020.0
20260503160124 62 201 3.0 3.0 0.00 0.00 0.00 59 1020.6
20260503150554 60 83 0.0 0.0 0.00 0.00 0.00 64 1020.6
20260503130944 53 65 1.0 2.0 0.00 0.00 0.00 77 1020.3
20260503130442 53 109 1.0 2.0 0.00 0.00 0.00 77 1020.4
20260503110332 39 124 0.0 0.0 0.00 0.00 0.00 97 1019.5
20260503100258 40 128 0.0 0.0 0.00 0.00 0.00 96 1018.8